FW5810 Weather Reports


time (UTC)temp
C
wind
direction
speed
KPH
gust
KPH
rain 1hr
cm
rain 24hr
cm
rain mn
cm
humidity
%
barometer
mb
20260831183310 30 119 3.2 8.0 0.00 0.03 0.03 60 1020.4
20260831182809 29 252 6.4 17.7 0.00 0.03 0.03 58 1020.4
20260831182305 29 248 3.2 4.8 0.00 0.03 0.03 64 1020.4
20260831181759 29 227 6.4 11.3 0.00 0.03 0.03 62 1020.4
20260831181254 30 173 4.8 6.4 0.00 0.03 0.03 60 1020.2
20260831180749 30 248 6.4 8.0 0.00 0.03 0.03 60 1020.3
20260831180244 30 254 3.2 6.4 0.00 0.03 0.03 59 1020.3
20260831175743 30 304 6.4 17.7 0.00 0.03 0.03 58 1020.4
20260831175240 30 289 3.2 6.4 0.00 0.03 0.03 59 1020.4
20260831174735 30 2 6.4 12.9 0.00 0.03 0.03 57 1020.3
20260831174231 30 321 3.2 4.8 0.00 0.03 0.03 59 1020.6
20260831173729 29 233 1.6 8.0 0.00 0.03 0.03 57 1020.3
20260831173229 30 268 8.0 11.3 0.00 0.03 0.03 55 1020.4
20260831172725 29 275 4.8 8.0 0.00 0.03 0.03 55 1020.5
20260831172220 29 312 4.8 12.9 0.00 0.03 0.03 57 1020.4
20260831171714 29 260 6.4 11.3 0.00 0.03 0.03 57 1020.5
20260831171212 29 206 4.8 11.3 0.00 0.03 0.03 56 1020.5
20260831170708 30 272 4.8 6.4 0.00 0.03 0.03 54 1020.5
20260831170205 30 301 3.2 6.4 0.00 0.03 0.03 54 1020.8
20260831165700 30 243 4.8 8.0 0.00 0.03 0.03 52 1020.5
20260831165156 30 351 3.2 6.4 0.00 0.03 0.03 51 1020.7
20260831164652 30 359 4.8 6.4 0.00 0.03 0.03 57 1020.5
20260831164148 30 262 11.3 12.9 0.00 0.03 0.03 58 1020.7
20260831163643 30 249 8.0 6.4 0.00 0.03 0.03 59 1020.5
20260831163139 28 298 1.6 1.6 0.00 0.03 0.03 63 1020.7
20260831162638 28 240 1.6 11.3 0.00 0.03 0.03 59 1020.6
20260831162136 29 234 8.0 11.3 0.00 0.03 0.03 58 1020.7
20260831161632 28 53 0.0 6.4 0.00 0.03 0.03 59 1020.8
20260831161129 29 352 1.6 17.7 0.00 0.03 0.03 60 1020.6
20260831160627 28 98 0.0 4.8 0.00 0.03 0.03 63 1020.6
20260831160122 28 331 1.6 12.9 0.00 0.03 0.03 64 1020.6
20260831155617 28 247 4.8 8.0 0.00 0.03 0.03 63 1020.7
20260831155112 28 0 8.0 11.3 0.00 0.03 0.03 65 1020.8
20260831154608 28 201 4.8 8.0 0.00 0.03 0.03 64 1020.6
20260831154108 28 237 4.8 11.3 0.00 0.03 0.03 67 1020.9
20260831153607 27 221 6.4 16.1 0.00 0.03 0.03 67 1020.6
20260831153104 27 211 4.8 11.3 0.00 0.03 0.03 68 1020.7
20260831152559 28 144 3.2 4.8 0.00 0.03 0.03 66 1020.8
20260831152055 28 238 9.7 12.9 0.00 0.03 0.03 65 1020.8
20260831151554 27 205 3.2 6.4 0.00 0.03 0.03 68 1020.9
20260831151049 27 220 6.4 16.1 0.00 0.03 0.03 70 1020.7
20260831150544 27 270 8.0 11.3 0.00 0.03 0.03 73 1020.7
20260831150040 27 227 11.3 12.9 0.00 0.03 0.03 71 1020.8
20260831145534 26 147 8.0 11.3 0.00 0.03 0.03 77 1020.9
20260831145030 26 241 3.2 8.0 0.00 0.03 0.03 79 1020.8
20260831144526 25 218 6.4 6.4 0.00 0.03 0.03 81 1021.0
20260831144021 24 247 1.6 8.0 0.00 0.03 0.03 84 1020.9
20260831143516 24 262 0.0 4.8 0.00 0.03 0.03 85 1021.1
20260831143011 24 247 3.2 8.0 0.00 0.03 0.03 85 1021.0
20260831142508 24 281 4.8 4.8 0.00 0.03 0.03 86 1020.9
20260831142002 23 288 4.8 6.4 0.00 0.03 0.03 86 1020.9
20260831141456 23 258 3.2 8.0 0.00 0.03 0.03 86 1020.8
20260831140951 24 276 3.2 6.4 0.00 0.03 0.03 85 1020.9
20260831140450 23 218 3.2 4.8 0.00 0.03 0.03 86 1020.7
20260831135949 23 252 4.8 6.4 0.00 0.03 0.03 86 1020.8
20260831135448 23 259 1.6 1.6 0.00 0.03 0.03 87 1020.6
20260831134943 23 234 1.6 1.6 0.00 0.03 0.03 88 1020.7
20260831134435 23 237 1.6 4.8 0.00 0.03 0.03 88 1020.7
20260831133934 22 181 4.8 4.8 0.00 0.03 0.03 90 1020.8
20260831133434 22 143 6.4 6.4 0.00 0.03 0.03 90 1020.9
20260831132930 22 144 1.6 1.6 0.00 0.03 0.03 92 1021.1
20260831132425 22 136 0.0 1.6 0.00 0.03 0.03 93 1021.0
20260831131924 21 135 0.0 4.8 0.00 0.03 0.03 94 1020.9
20260831131420 21 136 0.0 0.0 0.00 0.03 0.03 94 1020.8
20260831130916 21 137 0.0 0.0 0.00 0.03 0.03 94 1020.7
20260831130411 21 130 1.6 6.4 0.00 0.03 0.03 94 1020.8
20260831125910 21 112 3.2 4.8 0.00 0.03 0.03 94 1020.8
20260831125405 21 111 0.0 4.8 0.00 0.03 0.03 94 1020.9
20260831124901 21 108 3.2 1.6 0.00 0.03 0.03 94 1020.8
20260831124356 21 107 0.0 0.0 0.00 0.03 0.03 94 1020.9
20260831123851 21 107 0.0 0.0 0.00 0.03 0.03 94 1020.8
20260831123350 21 108 1.6 4.8 0.00 0.03 0.03 94 1020.7
20260831122845 21 102 3.2 4.8 0.00 0.03 0.03 94 1020.7
20260831122340 21 101 0.0 4.8 0.00 0.03 0.03 94 1020.8
20260831121840 21 60 1.6 1.6 0.00 0.03 0.03 94 1020.9
20260831121337 21 73 1.6 0.0 0.00 0.03 0.03 94 1020.8
20260831120832 21 73 1.6 1.6 0.00 0.03 0.03 94 1020.9
20260831120326 21 28 0.0 1.6 0.00 0.03 0.03 94 1020.9
20260831115821 20 268 3.2 6.4 0.00 0.03 0.03 95 1020.9
20260831115318 20 221 4.8 4.8 0.13 0.03 0.03 95 1020.9
20260831114817 20 99 0.0 6.4 0.13 0.03 0.03 95 1021.0
20260831114315 20 121 1.6 4.8 0.00 0.00 0.00 95 1020.9
20260831113811 20 16 1.6 1.6 0.00 0.00 0.00 95 1021.1
20260831113306 20 19 0.0 0.0 0.00 0.00 0.00 95 1021.0
20260831112800 20 20 0.0 0.0 0.00 0.00 0.00 95 1021.0
20260831112255 20 20 0.0 0.0 0.00 0.00 0.00 95 1020.9
20260831111750 20 19 0.0 1.6 0.00 0.00 0.00 95 1020.7
20260831111247 20 20 0.0 1.6 0.00 0.00 0.00 94 1020.5
20260831110743 20 27 0.0 0.0 0.00 0.00 0.00 94 1020.6
20260831110237 20 27 0.0 0.0 0.00 0.00 0.00 94 1020.7
20260831105736 20 27 0.0 0.0 0.00 0.00 0.00 93 1020.4
20260831105232 20 27 0.0 0.0 0.00 0.00 0.00 93 1020.4
20260831104726 20 27 0.0 0.0 0.00 0.00 0.00 93 1020.3
20260831104224 20 27 0.0 0.0 0.00 0.00 0.00 93 1020.3
20260831103723 20 27 0.0 0.0 0.00 0.00 0.00 93 1020.4
20260831103219 20 322 0.0 1.6 0.00 0.00 0.00 93 1020.3
20260831102718 20 348 0.0 0.0 0.00 0.00 0.00 93 1020.3
20260831102214 20 352 0.0 1.6 0.00 0.00 0.00 93 1020.2
20260831101709 20 66 1.6 1.6 0.00 0.00 0.00 93 1020.3
20260831101204 20 118 0.0 1.6 0.00 0.00 0.00 93 1020.2
20260831100700 20 118 1.6 1.6 0.00 0.00 0.00 93 1020.3
20260831100156 20 121 0.0 1.6 0.00 0.00 0.00 93 1020.1
20260831095654 20 116 4.8 6.4 0.00 0.00 0.00 93 1020.1
20260831095149 20 120 0.0 1.6 0.00 0.00 0.00 93 1020.1
20260831094644 20 98 0.0 4.8 0.00 0.00 0.00 94 1019.9
20260831094140 20 137 1.6 1.6 0.00 0.00 0.00 93 1019.9
20260831093636 20 136 0.0 1.6 0.00 0.00 0.00 93 1020.1
20260831093132 20 131 0.0 1.6 0.00 0.00 0.00 94 1020.2
20260831092628 20 112 0.0 1.6 0.00 0.00 0.00 94 1020.3
20260831092123 20 213 0.0 1.6 0.00 0.00 0.00 94 1020.2
20260831091623 20 213 0.0 1.6 0.00 0.00 0.00 94 1020.2
20260831091118 20 212 0.0 0.0 0.00 0.00 0.00 94 1020.2
20260831090614 20 208 0.0 1.6 0.00 0.00 0.00 94 1020.3
20260831090110 20 208 3.2 4.8 0.00 0.00 0.00 94 1020.3
20260831085605 20 149 1.6 1.6 0.00 0.00 0.00 94 1020.1
20260831085100 20 149 3.2 4.8 0.00 0.00 0.00 94 1020.3
20260831084556 20 142 0.0 1.6 0.00 0.00 0.00 94 1020.1
20260831084052 20 125 0.0 0.0 0.00 0.00 0.00 94 1020.2
20260831083547 20 125 0.0 0.0 0.00 0.00 0.00 94 1020.2
20260831083042 20 125 0.0 1.6 0.00 0.00 0.00 93 1019.9
20260831082535 20 126 0.0 1.6 0.00 0.00 0.00 93 1019.9
20260831082031 20 119 1.6 6.4 0.00 0.00 0.00 93 1020.2
20260831081527 20 107 3.2 4.8 0.00 0.00 0.00 94 1020.2
20260831081022 20 129 3.2 1.6 0.00 0.00 0.00 94 1020.2
20260831080516 20 128 0.0 1.6 0.00 0.00 0.00 95 1020.4
20260831080012 20 128 4.8 4.8 0.00 0.00 0.00 95 1020.2
20260831075507 20 128 0.0 1.6 0.00 0.00 0.00 95 1020.2
20260831075003 20 128 0.0 1.6 0.00 0.00 0.00 95 1020.2
20260831074502 20 128 0.0 1.6 0.00 0.00 0.00 95 1020.2
20260831073957 20 128 0.0 0.0 0.00 0.00 0.00 95 1020.1
20260831073456 20 128 0.0 1.6 0.00 0.00 0.00 95 1019.9
20260831072955 20 128 1.6 4.8 0.00 0.00 0.00 95 1020.3
20260831072452 20 126 0.0 0.0 0.00 0.00 0.00 95 1020.4
20260831071948 20 126 1.6 1.6 0.00 0.00 0.00 95 1020.3
20260831071447 20 126 1.6 1.6 0.00 0.00 0.00 95 1020.2
20260831070942 20 126 3.2 4.8 0.00 0.00 0.00 95 1020.3
20260831070441 20 154 0.0 0.0 0.00 0.00 0.00 95 1020.4
20260831065941 20 154 0.0 0.0 0.00 0.00 0.00 95 1020.6
20260831065439 20 155 0.0 0.0 0.00 0.00 0.00 95 1020.6
20260831064934 20 139 0.0 1.6 0.00 0.00 0.00 95 1020.4
20260831064429 20 135 0.0 4.8 0.00 0.00 0.00 95 1020.5
20260831063925 20 141 1.6 1.6 0.00 0.00 0.00 95 1020.5
20260831063420 20 141 0.0 4.8 0.00 0.00 0.00 95 1020.7
20260831062919 20 122 0.0 1.6 0.00 0.00 0.00 96 1020.6
20260831062415 20 122 0.0 0.0 0.00 0.00 0.00 96 1020.6
20260831061914 20 122 1.6 1.6 0.00 0.00 0.00 96 1020.8
20260831061413 20 122 0.0 1.6 0.00 0.00 0.00 96 1020.8
20260831060909 20 121 0.0 1.6 0.00 0.00 0.00 96 1020.7
20260831060404 20 121 1.6 1.6 0.00 0.00 0.00 96 1020.8
20260831055904 20 113 3.2 4.8 0.00 0.00 0.00 96 1020.8
20260831055359 20 107 3.2 4.8 0.00 0.00 0.00 96 1020.7
20260831054854 20 105 3.2 1.6 0.00 0.00 0.00 96 1020.8
20260831054349 20 103 3.2 1.6 0.00 0.00 0.00 96 1020.9
20260831053848 20 112 4.8 4.8 0.00 0.00 0.00 96 1021.0
20260831053346 20 122 1.6 1.6 0.00 0.00 0.00 96 1021.2
20260831052841 20 122 0.0 1.6 0.00 0.00 0.00 96 1021.1
20260831052340 20 78 1.6 4.8 0.00 0.00 0.00 96 1021.2
20260831051839 20 55 0.0 0.0 0.00 0.00 0.00 96 1021.3
20260831051337 20 55 0.0 0.0 0.00 0.00 0.00 95 1021.2
20260831050832 20 55 0.0 1.6 0.00 0.00 0.00 95 1021.2
20260831050332 20 70 4.8 4.8 0.00 0.00 0.00 95 1021.2
20260831045826 20 20 0.0 1.6 0.00 0.00 0.00 95 1021.3
20260831045320 21 20 3.2 4.8 0.00 0.00 0.00 95 1021.3
20260831044815 21 56 3.2 1.6 0.00 0.00 0.00 94 1021.2
20260831044310 21 131 0.0 1.6 0.00 0.00 0.00 94 1021.1
20260831043807 21 52 1.6 1.6 0.00 0.00 0.00 94 1021.2
20260831043306 21 49 3.2 4.8 0.00 0.00 0.00 95 1021.3
20260831042801 21 11 6.4 6.4 0.00 0.00 0.00 95 1021.0
20260831042300 21 349 4.8 6.4 0.00 0.00 0.00 95 1021.2
20260831041756 20 106 0.0 4.8 0.00 0.00 0.00 95 1021.0
20260831041255 20 133 4.8 6.4 0.00 0.00 0.00 95 1020.9
20260831040750 20 116 4.8 4.8 0.00 0.00 0.00 95 1021.0
20260831040249 20 112 1.6 1.6 0.00 0.00 0.00 95 1021.0
20260831035748 20 135 4.8 6.4 0.00 0.00 0.00 95 1021.2
20260831035247 20 127 0.0 0.0 0.00 0.00 0.00 94 1021.1
20260831034746 20 127 1.6 1.6 0.00 0.00 0.00 94 1021.4
20260831034242 20 127 0.0 0.0 0.00 0.00 0.00 94 1021.3
20260831033738 20 127 1.6 1.6 0.00 0.00 0.00 94 1021.4
20260831033237 20 127 1.6 1.6 0.00 0.00 0.00 94 1021.3
20260831032732 20 127 0.0 1.6 0.00 0.00 0.00 94 1021.5
20260831032227 20 127 0.0 1.6 0.00 0.00 0.00 94 1021.6
20260831031722 20 127 1.6 1.6 0.00 0.00 0.00 94 1021.4
20260831031217 20 125 1.6 1.6 0.00 0.00 0.00 93 1021.4
20260831030716 21 126 0.0 1.6 0.00 0.00 0.00 93 1021.5
20260831030214 21 112 0.0 1.6 0.00 0.00 0.00 93 1021.4
20260831025708 21 120 0.0 4.8 0.00 0.00 0.00 93 1021.5
20260831025203 21 119 1.6 1.6 0.00 0.00 0.00 92 1021.6
20260831024659 21 130 3.2 11.3 0.00 0.00 0.00 92 1021.7
20260831024157 21 124 1.6 6.4 0.00 0.00 0.00 92 1021.7
20260831023655 21 83 0.0 0.0 0.00 0.00 0.00 92 1021.9
20260831023149 21 83 0.0 0.0 0.00 0.00 0.00 92 1021.9
20260831022644 21 94 3.2 4.8 0.00 0.00 0.00 92 1021.9
20260831022134 21 110 1.6 4.8 0.00 0.00 0.00 92 1022.1
20260831021633 21 105 1.6 1.6 0.00 0.00 0.00 92 1021.8
20260831021128 21 100 0.0 0.0 0.00 0.00 0.00 93 1021.9
20260831020624 21 99 3.2 6.4 0.00 0.00 0.00 92 1021.9
20260831020119 21 112 3.2 1.6 0.00 0.00 0.00 92 1022.0
20260831015614 21 98 0.0 1.6 0.00 0.00 0.00 92 1022.2
20260831015108 21 56 1.6 4.8 0.00 0.00 0.00 91 1022.2
20260831014603 21 63 3.2 1.6 0.00 0.00 0.00 91 1022.2
20260831014059 21 68 3.2 6.4 0.00 0.00 0.00 91 1022.1
20260831013555 21 66 0.0 1.6 0.00 0.00 0.00 91 1022.2
20260831013054 21 68 0.0 1.6 0.00 0.00 0.00 92 1022.2
20260831012554 21 68 1.6 1.6 0.00 0.00 0.00 91 1022.2
20260831012049 21 62 0.0 0.0 0.00 0.00 0.00 92 1022.1
20260831011549 21 46 0.0 0.0 0.00 0.00 0.00 92 1022.1
20260831011044 21 47 1.6 1.6 0.00 0.00 0.00 91 1022.2
20260831010539 21 47 0.0 0.0 0.00 0.00 0.00 91 1022.2
20260831010036 21 46 0.0 0.0 0.00 0.00 0.00 91 1022.0
20260831005531 21 46 0.0 0.0 0.00 0.00 0.00 90 1022.1
20260831005030 22 46 0.0 1.6 0.00 0.00 0.00 90 1022.1
20260831004527 22 50 4.8 4.8 0.00 0.00 0.00 90 1022.0
20260831004022 22 22 0.0 4.8 0.00 0.00 0.00 90 1021.8
20260831003518 22 35 0.0 1.6 0.00 0.00 0.00 90 1021.8
20260831003014 22 53 0.0 4.8 0.00 0.00 0.00 90 1021.7
20260831002512 22 24 1.6 4.8 0.00 0.00 0.00 89 1021.7
20260831002008 22 58 6.4 8.0 0.00 0.00 0.00 89 1021.7
20260831001503 22 15 8.0 8.0 0.00 0.00 0.00 89 1021.4
20260831001000 22 8 4.8 4.8 0.00 0.00 0.00 89 1021.4
20260831000455 22 19 4.8 6.4 0.00 0.00 0.00 88 1021.1
20260830235953 22 27 3.2 6.4 0.00 0.00 0.00 88 1021.1
20260830235448 22 16 1.6 1.6 0.00 0.00 0.00 88 1021.0
20260830234944 22 38 1.6 4.8 0.00 0.00 0.00 87 1021.1
20260830234438 22 18 4.8 6.4 0.00 0.00 0.00 87 1020.8
20260830233934 23 26 3.2 6.4 0.00 0.00 0.00 85 1020.9
20260830233430 23 33 1.6 4.8 0.00 0.00 0.00 83 1020.6
20260830232925 23 28 3.2 4.8 0.00 0.00 0.00 81 1020.7
20260830232420 23 9 3.2 4.8 0.00 0.00 0.00 79 1020.5
20260830231917 23 28 0.0 0.0 0.00 0.00 0.00 80 1020.4
20260830231412 23 32 3.2 4.8 0.00 0.00 0.00 80 1020.5
20260830230911 23 1 1.6 1.6 0.00 0.00 0.00 78 1020.4
20260830230407 23 1 3.2 4.8 0.00 0.00 0.00 78 1020.3
20260830225906 23 5 6.4 6.4 0.00 0.00 0.00 78 1019.9
20260830225401 23 65 1.6 1.6 0.00 0.00 0.00 77 1019.8
20260830224856 23 120 3.2 4.8 0.00 0.00 0.00 78 1019.7
20260830224355 23 102 0.0 4.8 0.00 0.00 0.00 79 1019.5
20260830223852 23 127 6.4 8.0 0.00 0.00 0.00 78 1019.7
20260830223348 24 129 4.8 6.4 0.00 0.00 0.00 77 1019.8
20260830222847 24 106 0.0 1.6 0.00 0.00 0.00 79 1019.9
20260830222343 24 106 0.0 1.6 0.00 0.00 0.00 75 1020.1
20260830221838 24 106 1.6 1.6 0.00 0.00 0.00 75 1020.1
20260830221335 25 105 1.6 4.8 0.00 0.00 0.00 76 1020.1
20260830220830 25 98 3.2 1.6 0.00 0.00 0.00 72 1020.1
20260830220324 25 98 0.0 0.0 0.00 0.00 0.00 70 1020.3
20260830215822 25 98 0.0 0.0 0.00 0.00 0.00 71 1020.3
20260830215317 25 98 0.0 0.0 0.00 0.00 0.00 70 1020.2
20260830214812 25 98 1.6 1.6 0.00 0.00 0.00 73 1020.3
20260830214307 25 98 0.0 0.0 0.00 0.00 0.00 74 1020.5
20260830213806 25 98 0.0 0.0 0.00 0.00 0.00 74 1020.3
20260830213301 25 98 0.0 1.6 0.00 0.00 0.00 71 1020.3
20260830212757 25 98 0.0 0.0 0.00 0.00 0.00 74 1020.2
20260830212253 25 95 0.0 0.0 0.00 0.00 0.00 71 1020.3
20260830211752 25 95 0.0 0.0 0.00 0.00 0.00 72 1020.4
20260830211251 25 96 0.0 0.0 0.00 0.00 0.00 72 1020.5
20260830210748 25 95 0.0 0.0 0.00 0.00 0.00 73 1020.4
20260830210246 25 94 1.6 1.6 0.00 0.00 0.00 73 1020.3
20260830205744 25 125 3.2 4.8 0.00 0.00 0.00 73 1020.4
20260830205239 25 210 0.0 4.8 0.00 0.00 0.00 74 1020.5
20260830204734 25 143 3.2 4.8 0.00 0.00 0.00 74 1020.6
20260830204233 25 116 0.0 1.6 0.00 0.00 0.00 73 1020.7
20260830203729 25 115 1.6 1.6 0.00 0.00 0.00 73 1020.8
20260830203225 25 264 0.0 1.6 0.00 0.00 0.00 75 1020.6
20260830202724 25 244 3.2 4.8 0.00 0.00 0.00 75 1020.7
20260830202220 25 104 1.6 1.6 0.00 0.00 0.00 77 1020.7
20260830201719 25 104 3.2 4.8 0.00 0.00 0.00 76 1020.8
20260830201214 25 117 4.8 4.8 0.00 0.00 0.00 74 1020.8
20260830200710 25 122 1.6 1.6 0.00 0.00 0.00 75 1020.9
20260830200209 25 122 1.6 1.6 0.00 0.00 0.00 75 1021.2
20260830195704 25 105 1.6 4.8 0.00 0.00 0.00 74 1021.0
20260830195202 25 111 4.8 4.8 0.00 0.00 0.00 72 1021.2
20260830194701 25 112 1.6 4.8 0.00 0.00 0.00 72 1021.2
20260830194156 25 109 0.0 0.0 0.00 0.00 0.00 72 1021.3
20260830193650 25 77 0.0 1.6 0.00 0.00 0.00 72 1021.4
20260830193145 25 77 3.2 1.6 0.00 0.00 0.00 69 1021.3
20260830192640 25 339 0.0 0.0 0.00 0.00 0.00 68 1021.6
20260830192135 25 346 0.0 0.0 0.00 0.00 0.00 67 1021.7
20260830191631 25 351 0.0 0.0 0.00 0.00 0.00 69 1021.8
20260830191125 26 29 1.6 1.6 0.00 0.00 0.00 65 1021.9
20260830190621 25 29 0.0 1.6 0.00 0.00 0.00 66 1021.8
20260830190115 25 354 4.8 6.4 0.00 0.00 0.00 65 1021.9
20260830185609 25 58 1.6 1.6 0.00 0.00 0.00 66 1022.0
20260830185105 25 20 1.6 1.6 0.00 0.00 0.00 69 1022.2
20260830184603 25 11 0.0 6.4 0.00 0.00 0.00 66 1022.0
20260830184058 26 18 3.2 8.0 0.00 0.00 0.00 66 1022.1
20260830183552 25 1 0.0 1.6 0.00 0.00 0.00 69 1022.3